User: anonymous   Login
Location: Newark
(19.8968°N, 89.5281°W)
Time: 04:28:38
(UTC+00:00)
Language:

ISS - Orbit

View from above orbital plane
View from above orbital plane
View from above satellite
View from above satellite

Ground track
Ground track

The orbit data is extracted from the following two-line orbital elements,

1 25544U 98067A   19287.88100694 -.00000271  00000-0  33064-5 0  9995
2 25544  51.6422 127.7427 0007233 148.1782  52.1859 15.50195401193822
Epoch (UTC): 14 October 2019 21:08:39
Eccentricity: 0.0007233
inclination: 51.6422°
perigee height: 411 km
apogee height: 421 km
right ascension of ascending node: 127.7427°
argument of perigee: 148.1782°
revolutions per day: 15.50195401
mean anomaly at epoch: 52.1859°
orbit number at epoch: 19382

The dashed part of the orbit path shows where the satellite is in the earth's shadow,  

DLR